Regional Weather Roundup
Issued by NWS

Home | Current Version | Previous Version | Text Only | Print | Product List | Glossary On
Versions: 1 2 3 4 5 6 7 8 9 10 11 12 13 14 15 16 17 18 19 20 21 22 23 24 25 26 27 28 29 30 31 32 33 34 35 36 37 38 39 40 41 42 43 44 45 46 47 48 49 50
000
ASUS44 KBMX 061110
RWRAL

ALABAMA REGIONAL WEATHER ROUNDUP
NATIONAL WEATHER SERVICE BIRMINGHAM AL
500 AM CST FRI MAR 06 2015

NOTE: "FAIR" INDICATES FEW OR NO CLOUDS BELOW 12,000 FEET
WITH NO SIGNIFICANT WEATHER AND/OR OBSTRUCTIONS TO VISIBILITY.

THE REMARK "TC" DENOTES TEMPERATURE IN DEGREES CELSIUS.

ALZ001>011-014-016>018-020-061200-
NORTH ALABAMA

CITY           SKY/WX    TMP DP  RH WIND       PRES   REMARKS
MUSCLE SHOALS  PTCLDY    18   9  68 N6        30.54S WCI  10
HUNTSVILLE     PTCLDY    17  11  77 N3        30.49S
DECATUR        PTCLDY    16  11  80 N8        30.51R WCI   5
HALEYVILLE       N/A     13  10  87 N5        30.49R WCI   5
GADSDEN        PTCLDY    21  12  68 N8        30.43R WCI  12
$$

ALZ012-013-022-023-030>036-040>044-061200-
WEST CENTRAL ALABAMA

CITY           SKY/WX    TMP DP  RH WIND       PRES   REMARKS
TUSCALOOSA     CLEAR     22  15  75 N9        30.50R WCI  12
$$

ALZ015-024>027-033>036-040>044-061200-
CENTRAL ALABAMA

CITY           SKY/WX    TMP DP  RH WIND       PRES   REMARKS
BIRMINGHAM     PTCLDY    19  15  84 N8        30.46R WCI   9
MONTGOMERY     PTCLDY    26  19  74 N8        30.42R WCI  18
SHELBY CO ARPT PTCLDY    22  16  78 N6        30.43R WCI  14
MAXWELL AFB    PTCLDY    26  20  77 N13       30.42R WCI  15
GREENVILLE     FAIR      26  19  74 N12       30.37R WCI  16
$$

ALZ019-021-028-029-037-038-045>048-061200-
EAST CENTRAL ALABAMA

CITY           SKY/WX    TMP DP  RH WIND       PRES   REMARKS
ANNISTON       MOCLDY    23  16  74 VRB3      30.43R
ALEXANDER CITY MOCLDY    27  19  71 N10       30.39R WCI  18
AUBURN         CLOUDY    27  18  69 N13       30.36R WCI  16
$$

ALZ051>064-061200-
SOUTHWEST ALABAMA

CITY           SKY/WX    TMP DP  RH WIND       PRES   REMARKS
MOBILE         PTCLDY    27  19  72 N18G24    30.40R WCI  14
BROOKLEY FIELD PTCLDY    30  22  72 N14       30.41R WCI  19
EVERGREEN      PTCLDY    27  20  75 N9G17     30.40R WCI  18
$$

ALZ049-050-065>069-061200-
SOUTHEAST ALABAMA

CITY           SKY/WX    TMP DP  RH WIND       PRES   REMARKS
DOTHAN         PTCLDY    30  24  78 N13       30.36R WCI  20
OZARK          PTCLDY    30  23  74 N12       30.33R WCI  20
TROY           PTCLDY    28  21  75 N12       30.37R WCI  18
EUFAULA        CLOUDY    32  25  75 VRB3      30.34R
$$



USA.gov is the U.S. government's official web portal to all federal, state and local government web resources and services.